This is the latest recevied weather packets stored in our database for station/object KE8DAF-15. If no packets are shown the sender has not sent any weather packets the latest 10 day(s).
| Time | Temp. | Humidity | Pressure | Rain* | Wind** | Luminosity | Snow |
|---|---|---|---|---|---|---|---|
| 1788024164 | 22.78° C | 76% | 1003.7 hPa | 0 mm | - | - | - |
| 1788023864 | 22.78° C | 76% | 1003.7 hPa | 0 mm | - | - | - |
| 1788023564 | 22.78° C | 74% | 1003.6 hPa | 0 mm | - | - | - |
| 1788023264 | 23.33° C | 74% | 1003.5 hPa | 0 mm | - | - | - |
| 1788022965 | 23.33° C | 74% | 1003.7 hPa | 0 mm | - | - | - |
| 1788022664 | 23.33° C | 74% | 1003.6 hPa | 0 mm | - | - | - |
| 1788022365 | 23.33° C | 72% | 1003.6 hPa | 0 mm | - | - | - |
| 1788022064 | 23.89° C | 72% | 1003.6 hPa | 0 mm | - | - | - |
| 1788021765 | 23.89° C | 70% | 1003.6 hPa | 0 mm | - | - | - |
| 1788021465 | 23.89° C | 73% | 1003.7 hPa | 0 mm | - | - | - |
| 1788021164 | 23.89° C | 73% | 1003.8 hPa | 0 mm | - | - | - |
| 1788020865 | 23.33° C | 72% | 1003.8 hPa | 0 mm | - | - | - |
| 1788020565 | 23.89° C | 72% | 1003.8 hPa | 0 mm | - | - | - |
| 1788020265 | 23.89° C | 72% | 1003.7 hPa | 0 mm | - | - | - |
| 1788019965 | 23.89° C | 71% | 1003.8 hPa | 0 mm | - | - | - |
| 1788019665 | 23.89° C | 69% | 1003.7 hPa | 0 mm | - | - | - |
| 1788019365 | 24.44° C | 66% | 1003.6 hPa | 0 mm | - | - | - |
| 1788019065 | 25.56° C | 67% | 1003.6 hPa | 0 mm | - | - | - |
| 1788018765 | 25.56° C | 73% | 1003.6 hPa | 0 mm | - | - | - |
| 1788018465 | 25° C | 72% | 1003.6 hPa | 0 mm | - | - | - |
| 1788018165 | 24.44° C | 71% | 1003.6 hPa | 0 mm | - | - | - |
| 1788017865 | 25° C | 69% | 1003.6 hPa | 0 mm | - | - | - |
| 1788017565 | 25° C | 71% | 1003.7 hPa | 0 mm | - | - | - |
| 1788017265 | 25° C | 70% | 1003.6 hPa | 0 mm | - | - | - |
| 1788016999 | 25° C | 70% | 1003.6 hPa | 0 mm | - | - | - |
* Rain latest hour (hover to see other rain measurements)
** Current wind speed in m/s (hover to see current wind gust speed)